カタログに戻る

FENGYUN 1C DEB

運用中PO
NORAD 32230·DEBRIS·🇨🇳 China

打ち上げ May 10, 1999 から Taiyuan Satellite Launch Center

Loading…

次のパス (今後24時間)

TLE

最新Source: Space-Track

元期: Sep 14, 2026, 10:39 UTC

1 32230U 99025CWC 26257.44389640  .00006427  00000-0  12621-2 0  9998
2 32230  98.8889  71.3168 0045962 324.9882  64.3679 14.62384891646928

AllMySatでFENGYUN 1C DEBをリアルタイム追跡

Download on the App Store